SAS7745 EKCH-LGSM

Flight info

Callsign SAS7745
Flight time 3h 1m
Altitude 37000
Route SIMEG Z493 XELOL DCT OLNED DCT BAREX DCT KELEL DCT KEKED DCT BADOR DCT LOMOS DCT NIKTI UN127 LMO UL618 MES G18 IKARO UL609 LARKI
Aircraft A320/M-SDE3FGHIRWY/LB1

Departure

Time 2026-05-04 13:27
Airport Copenhagen Kastrup Airport (EKCH)

Arrival

Time 2026-05-04 16:28
Airport Samos Airport (LGSM)
Time Latitude Longitude Altitude Speed Heading
2026-05-04 13:08 55.62755 12.64476 24 ft 0 kts 102°
2026-05-04 13:18 55.62755 12.64474 24 ft 2 kts 102°
2026-05-04 13:19 55.62760 12.64431 25 ft 3 kts 102°
2026-05-04 13:19 55.62763 12.64398 28 ft 4 kts 51°
2026-05-04 13:19 55.62744 12.64374 27 ft 4 kts 27°
2026-05-04 13:19 55.62721 12.64353 27 ft 2 kts 27°
2026-05-04 13:20 55.62701 12.64336 28 ft 4 kts 22°
2026-05-04 13:20 55.62681 12.64322 25 ft 3 kts 21°
2026-05-04 13:20 55.62656 12.64305 25 ft 4 kts 22°
2026-05-04 13:20 55.62632 12.64285 27 ft 4 kts 30°
2026-05-04 13:21 55.62614 12.64265 27 ft 4 kts 34°
2026-05-04 13:21 55.62591 12.64239 25 ft 4 kts 33°
2026-05-04 13:21 55.62570 12.64214 26 ft 3 kts 33°
2026-05-04 13:21 55.62551 12.64184 27 ft 4 kts 68°
2026-05-04 13:22 55.62550 12.64141 27 ft 4 kts 116°
2026-05-04 13:22 55.62563 12.64102 26 ft 4 kts 123°
2026-05-04 13:22 55.62576 12.64065 27 ft 2 kts 123°
2026-05-04 13:22 55.62577 12.64063 27 ft 0 kts 123°
2026-05-04 13:24 55.62567 12.64092 25 ft 7 kts 123°
2026-05-04 13:25 55.62444 12.64402 24 ft 22 kts 128°
2026-05-04 13:25 55.62314 12.64421 23 ft 21 kts 197°
2026-05-04 13:25 55.62172 12.64321 23 ft 23 kts 206°
2026-05-04 13:25 55.62029 12.64198 24 ft 24 kts 205°
2026-05-04 13:26 55.61875 12.64076 24 ft 25 kts 197°
2026-05-04 13:26 55.61702 12.64091 27 ft 25 kts 178°
2026-05-04 13:26 55.61553 12.63958 29 ft 26 kts 222°
2026-05-04 13:26 55.61329 12.63606 27 ft 72 kts 221°
2026-05-04 13:27 55.60807 12.62801 25 ft 124 kts 221°
2026-05-04 13:27 55.60046 12.61629 28 ft 164 kts 225°
2026-05-04 13:27 55.59168 12.60326 592 ft 162 kts 224°
2026-05-04 13:27 55.58308 12.59051 1263 ft 161 kts 225°
2026-05-04 13:28 55.57451 12.57723 1693 ft 170 kts 226°
2026-05-04 13:28 55.56489 12.56259 1865 ft 196 kts 217°
2026-05-04 13:28 55.55117 12.55399 2142 ft 228 kts 185°
2026-05-04 13:28 55.53512 12.56221 2482 ft 260 kts 146°
2026-05-04 13:29 55.52278 12.58681 3109 ft 275 kts 124°
2026-05-04 13:29 55.51318 12.61648 3923 ft 281 kts 118°
2026-05-04 13:29 55.50465 12.64774 4763 ft 285 kts 116°
2026-05-04 13:29 55.49648 12.67884 5552 ft 290 kts 117°
2026-05-04 13:30 55.48780 12.71121 6346 ft 295 kts 117°
2026-05-04 13:30 55.47885 12.74346 7089 ft 298 kts 119°
2026-05-04 13:30 55.46950 12.77604 7843 ft 302 kts 120°
2026-05-04 13:30 55.45978 12.80908 8603 ft 306 kts 121°
2026-05-04 13:31 55.44982 12.84244 9363 ft 309 kts 121°
2026-05-04 13:31 55.43969 12.87615 10077 ft 313 kts 121°
2026-05-04 13:31 55.42917 12.91108 10343 ft 334 kts 121°
2026-05-04 13:31 55.41785 12.94843 10487 ft 356 kts 121°
2026-05-04 13:32 55.40605 12.98752 10963 ft 366 kts 121°
2026-05-04 13:32 55.39406 13.02734 11592 ft 370 kts 121°
2026-05-04 13:32 55.38196 13.06755 12223 ft 374 kts 121°
2026-05-04 13:32 55.36969 13.10829 12872 ft 378 kts 121°
2026-05-04 13:33 55.35745 13.14880 13506 ft 381 kts 121°
2026-05-04 13:33 55.34479 13.19062 14094 ft 385 kts 121°
2026-05-04 13:33 55.33213 13.23241 14649 ft 389 kts 121°
2026-05-04 13:33 55.31936 13.27444 15197 ft 392 kts 122°
2026-05-04 13:34 55.30660 13.31621 15727 ft 395 kts 122°
2026-05-04 13:34 55.29351 13.35896 16273 ft 398 kts 122°
2026-05-04 13:34 55.28033 13.40195 16809 ft 401 kts 122°
2026-05-04 13:34 55.26703 13.44530 17371 ft 405 kts 122°
2026-05-04 13:35 55.25337 13.48869 17924 ft 406 kts 126°
2026-05-04 13:35 55.21805 13.56583 18948 ft 408 kts 136°
2026-05-04 13:35 55.19958 13.60297 19465 ft 411 kts 136°
2026-05-04 13:36 55.18075 13.64084 19976 ft 414 kts 136°
2026-05-04 13:36 55.16177 13.67893 20496 ft 417 kts 137°
2026-05-04 13:36 55.14262 13.71734 20994 ft 420 kts 137°
2026-05-04 13:36 55.12337 13.75593 21479 ft 423 kts 137°
2026-05-04 13:37 55.10398 13.79475 21954 ft 426 kts 137°
2026-05-04 13:37 55.08445 13.83375 22414 ft 429 kts 138°
2026-05-04 13:37 55.06472 13.87310 22874 ft 432 kts 138°
2026-05-04 13:37 55.05157 13.89932 23174 ft 433 kts 138°
2026-05-04 13:38 55.02490 13.95241 23729 ft 437 kts 138°
2026-05-04 13:38 55.00477 13.99237 24090 ft 440 kts 138°
2026-05-04 13:38 54.98450 14.03252 24459 ft 442 kts 139°
2026-05-04 13:38 54.96412 14.07272 24833 ft 444 kts 139°
2026-05-04 13:39 54.94363 14.11313 25186 ft 446 kts 139°
2026-05-04 13:39 54.92270 14.15313 25525 ft 445 kts 143°
2026-05-04 13:39 54.89937 14.18769 25865 ft 438 kts 152°
2026-05-04 13:39 54.87472 14.21778 26206 ft 438 kts 153°
2026-05-04 13:40 54.84964 14.24816 26545 ft 440 kts 153°
2026-05-04 13:40 54.82443 14.27862 26886 ft 442 kts 153°
2026-05-04 13:40 54.79912 14.30919 27226 ft 444 kts 153°
2026-05-04 13:40 54.77375 14.33988 27565 ft 446 kts 153°
2026-05-04 13:41 54.74811 14.37023 27905 ft 447 kts 154°
2026-05-04 13:41 54.72216 14.39993 28244 ft 448 kts 154°
2026-05-04 13:41 54.69595 14.42940 28577 ft 450 kts 154°
2026-05-04 13:42 54.64420 14.49143 29347 ft 452 kts 151°
2026-05-04 13:42 54.61887 14.52334 29836 ft 451 kts 151°
2026-05-04 13:42 54.59358 14.55544 30264 ft 449 kts 151°
2026-05-04 13:42 54.56841 14.58725 30662 ft 448 kts 151°
2026-05-04 13:43 54.54320 14.61874 31052 ft 447 kts 152°
2026-05-04 13:43 54.51794 14.64985 31450 ft 445 kts 152°
2026-05-04 13:43 54.49271 14.68060 31837 ft 444 kts 153°
2026-05-04 13:43 54.46774 14.71092 32213 ft 444 kts 153°
2026-05-04 13:44 54.44251 14.74154 32611 ft 443 kts 153°
2026-05-04 13:44 54.41732 14.77208 32989 ft 443 kts 153°
2026-05-04 13:44 54.39219 14.80259 33370 ft 442 kts 153°
2026-05-04 13:44 54.36710 14.83310 33742 ft 442 kts 153°
2026-05-04 13:45 54.34207 14.86353 34067 ft 441 kts 153°
2026-05-04 13:45 54.31692 14.89407 34364 ft 441 kts 152°
2026-05-04 13:45 54.29184 14.92449 34640 ft 441 kts 152°
2026-05-04 13:45 54.26679 14.95481 34911 ft 441 kts 152°
2026-05-04 13:46 54.24210 14.98461 35171 ft 441 kts 152°
2026-05-04 13:46 54.21701 15.01481 35427 ft 440 kts 152°
2026-05-04 13:46 54.19198 15.04488 35685 ft 440 kts 152°
2026-05-04 13:46 54.16697 15.07486 35932 ft 440 kts 151°
2026-05-04 13:47 54.14192 15.10483 36176 ft 440 kts 151°
2026-05-04 13:47 54.11689 15.13476 36410 ft 439 kts 151°
2026-05-04 13:47 54.09186 15.16469 36639 ft 439 kts 151°
2026-05-04 13:47 54.06682 15.19462 36864 ft 439 kts 150°
2026-05-04 13:48 54.01641 15.25466 36952 ft 447 kts 150°
2026-05-04 13:48 53.96512 15.31542 36955 ft 451 kts 150°
2026-05-04 13:49 53.91363 15.37639 36952 ft 451 kts 150°
2026-05-04 13:49 53.86211 15.43728 36951 ft 451 kts 150°
2026-05-04 13:50 53.81059 15.49798 36949 ft 451 kts 150°
2026-05-04 13:50 53.75895 15.55848 36946 ft 452 kts 150°
2026-05-04 13:51 53.70715 15.61901 36944 ft 452 kts 150°
2026-05-04 13:51 53.65584 15.67885 36942 ft 452 kts 150°
2026-05-04 13:52 53.57812 15.76907 36940 ft 452 kts 150°
2026-05-04 13:53 53.52634 15.82907 36938 ft 452 kts 150°
2026-05-04 13:53 53.47451 15.88876 36938 ft 452 kts 151°
2026-05-04 13:54 53.39659 15.97794 36940 ft 451 kts 151°
2026-05-04 13:55 53.31886 16.06698 36938 ft 452 kts 150°
2026-05-04 13:55 53.24101 16.15590 36943 ft 451 kts 151°
2026-05-04 13:56 53.18908 16.21482 36941 ft 451 kts 151°
2026-05-04 13:57 53.11138 16.30248 36935 ft 452 kts 151°
2026-05-04 13:58 53.00706 16.41975 36941 ft 452 kts 151°
2026-05-04 13:58 52.92880 16.50745 36944 ft 453 kts 151°
2026-05-04 13:59 52.87651 16.56563 36944 ft 453 kts 151°
2026-05-04 14:00 52.79834 16.65245 36950 ft 453 kts 151°
2026-05-04 14:00 52.71980 16.73933 36954 ft 453 kts 151°
2026-05-04 14:01 52.66736 16.79705 36971 ft 453 kts 151°
2026-05-04 14:02 52.58860 16.88344 36978 ft 453 kts 151°
2026-05-04 14:02 52.54494 16.93122 36981 ft 453 kts 151°
2026-05-04 14:03 52.49233 16.98851 36984 ft 454 kts 151°
2026-05-04 14:03 52.43958 17.04582 36980 ft 454 kts 151°
2026-05-04 14:04 52.36049 17.13171 36968 ft 455 kts 151°
2026-05-04 14:04 52.30760 17.18883 36959 ft 455 kts 151°
2026-05-04 14:05 52.22854 17.27380 36952 ft 456 kts 151°
2026-05-04 14:06 52.17551 17.33071 36952 ft 456 kts 151°
2026-05-04 14:06 52.12236 17.38737 36952 ft 457 kts 151°
2026-05-04 14:07 52.06922 17.44405 36953 ft 457 kts 150°
2026-05-04 14:07 52.01606 17.50062 36960 ft 457 kts 150°
2026-05-04 14:08 51.96286 17.55689 36957 ft 457 kts 150°
2026-05-04 14:08 51.90961 17.61303 36957 ft 457 kts 150°
2026-05-04 14:09 51.82973 17.69727 36958 ft 456 kts 150°
2026-05-04 14:10 51.75015 17.78063 36966 ft 456 kts 150°
2026-05-04 14:10 51.69684 17.83619 36961 ft 456 kts 150°
2026-05-04 14:11 51.64355 17.89174 36972 ft 455 kts 150°
2026-05-04 14:11 51.56374 17.97462 36958 ft 455 kts 150°
2026-05-04 14:12 51.51050 18.02961 36976 ft 455 kts 150°
2026-05-04 14:13 51.43102 18.11164 36974 ft 454 kts 150°
2026-05-04 14:13 51.37780 18.16620 36966 ft 454 kts 150°
2026-05-04 14:14 51.32463 18.22055 36970 ft 453 kts 150°
2026-05-04 14:14 51.24490 18.30196 36971 ft 453 kts 150°
2026-05-04 14:15 51.13856 18.40996 36974 ft 453 kts 150°
2026-05-04 14:16 51.05883 18.49058 36977 ft 453 kts 150°
2026-05-04 14:17 50.97909 18.57098 36977 ft 452 kts 150°
2026-05-04 14:18 50.89922 18.65080 36978 ft 452 kts 150°
2026-05-04 14:19 50.79327 18.75672 36987 ft 452 kts 150°
2026-05-04 14:19 50.74002 18.80961 36991 ft 452 kts 150°
2026-05-04 14:20 50.68674 18.86233 37001 ft 452 kts 150°
2026-05-04 14:20 50.63339 18.91498 37007 ft 452 kts 150°
2026-05-04 14:21 50.55340 18.99371 37013 ft 452 kts 150°
2026-05-04 14:21 50.50005 19.04599 37013 ft 452 kts 150°
2026-05-04 14:22 50.44677 19.09817 37015 ft 452 kts 150°
2026-05-04 14:22 50.39339 19.15028 37014 ft 451 kts 150°
2026-05-04 14:23 50.31362 19.22780 37011 ft 452 kts 150°
2026-05-04 14:24 50.26039 19.27949 37007 ft 452 kts 150°
2026-05-04 14:24 50.20683 19.33130 37003 ft 452 kts 150°
2026-05-04 14:25 50.15340 19.38292 37007 ft 452 kts 150°
2026-05-04 14:25 50.07311 19.46000 37007 ft 452 kts 150°
2026-05-04 14:26 50.01957 19.51129 37009 ft 452 kts 150°
2026-05-04 14:26 49.96597 19.56257 37008 ft 452 kts 150°
2026-05-04 14:27 49.91235 19.61372 37010 ft 452 kts 150°
2026-05-04 14:27 49.85869 19.66467 37011 ft 452 kts 150°
2026-05-04 14:28 49.80527 19.71523 37016 ft 453 kts 150°
2026-05-04 14:28 49.75146 19.76597 37019 ft 453 kts 150°
2026-05-04 14:29 49.64382 19.86759 37027 ft 454 kts 150°
2026-05-04 14:30 49.58982 19.91834 37029 ft 454 kts 150°
2026-05-04 14:31 49.50874 19.99401 37038 ft 454 kts 150°
2026-05-04 14:32 49.40113 20.09413 37055 ft 454 kts 149°
2026-05-04 14:32 49.34714 20.14418 37061 ft 453 kts 149°
2026-05-04 14:33 49.29604 20.20036 37066 ft 454 kts 136°
2026-05-04 14:33 49.25020 20.26683 37062 ft 454 kts 136°
2026-05-04 14:34 49.20411 20.33309 37057 ft 455 kts 137°
2026-05-04 14:34 49.15792 20.39913 37052 ft 455 kts 137°
2026-05-04 14:35 49.11157 20.46533 37048 ft 456 kts 136°
2026-05-04 14:35 49.06511 20.53156 37051 ft 457 kts 136°
2026-05-04 14:36 49.01852 20.59776 37057 ft 458 kts 136°
2026-05-04 14:36 48.97184 20.66403 37065 ft 459 kts 136°
2026-05-04 14:37 48.92505 20.73025 37072 ft 459 kts 136°
2026-05-04 14:37 48.87820 20.79620 37078 ft 459 kts 136°
2026-05-04 14:38 48.83157 20.86174 37076 ft 459 kts 136°
2026-05-04 14:38 48.78457 20.92770 37082 ft 459 kts 136°
2026-05-04 14:39 48.73768 20.99338 37082 ft 459 kts 136°
2026-05-04 14:39 48.69075 21.05887 37081 ft 458 kts 136°
2026-05-04 14:40 48.62045 21.15670 37081 ft 457 kts 136°
2026-05-04 14:40 48.57356 21.22158 37082 ft 457 kts 136°
2026-05-04 14:41 48.52644 21.28521 37082 ft 457 kts 142°
2026-05-04 14:42 48.41744 21.38404 37085 ft 457 kts 149°
2026-05-04 14:42 48.36248 21.43202 37086 ft 456 kts 149°
2026-05-04 14:43 48.30754 21.47991 37087 ft 457 kts 149°
2026-05-04 14:43 48.25254 21.52774 37086 ft 457 kts 149°
2026-05-04 14:44 48.19786 21.57506 37093 ft 457 kts 149°
2026-05-04 14:44 48.14276 21.62269 37098 ft 457 kts 149°
2026-05-04 14:45 48.08772 21.67029 37101 ft 457 kts 149°
2026-05-04 14:45 48.03256 21.71773 37100 ft 456 kts 149°
2026-05-04 14:46 47.97746 21.76491 37099 ft 456 kts 149°
2026-05-04 14:46 47.92275 21.81184 37098 ft 457 kts 149°
2026-05-04 14:47 47.86766 21.85904 37100 ft 457 kts 149°
2026-05-04 14:47 47.81241 21.90596 37101 ft 457 kts 149°
2026-05-04 14:48 47.75714 21.95281 37097 ft 457 kts 149°
2026-05-04 14:48 47.70185 21.99974 37101 ft 458 kts 149°
2026-05-04 14:49 47.64648 22.04660 37102 ft 458 kts 149°
2026-05-04 14:49 47.59089 22.09290 37101 ft 458 kts 153°
2026-05-04 14:50 47.53042 22.12223 37106 ft 459 kts 167°
2026-05-04 14:50 47.47853 22.13908 37105 ft 459 kts 167°
2026-05-04 14:51 47.41601 22.15947 37110 ft 460 kts 167°
2026-05-04 14:51 47.34331 22.18308 37114 ft 460 kts 167°
2026-05-04 14:52 47.29094 22.20010 37112 ft 460 kts 167°
2026-05-04 14:52 47.22833 22.22032 37114 ft 460 kts 167°
2026-05-04 14:53 47.16610 22.24032 37115 ft 460 kts 167°
2026-05-04 14:53 47.10356 22.26046 37116 ft 460 kts 167°
2026-05-04 14:54 47.04097 22.28062 37120 ft 460 kts 167°
2026-05-04 14:54 46.97847 22.30074 37117 ft 460 kts 167°
2026-05-04 14:55 46.91589 22.32071 37121 ft 459 kts 167°
2026-05-04 14:55 46.85379 22.34043 37124 ft 459 kts 167°
2026-05-04 14:56 46.79137 22.36017 37121 ft 459 kts 167°
2026-05-04 14:56 46.72917 22.37980 37120 ft 459 kts 167°
2026-05-04 14:57 46.66706 22.39952 37121 ft 459 kts 167°
2026-05-04 14:57 46.60471 22.41923 37114 ft 459 kts 167°
2026-05-04 14:58 46.54225 22.43886 37113 ft 459 kts 167°
2026-05-04 14:58 46.47978 22.45842 37108 ft 459 kts 167°
2026-05-04 14:59 46.41737 22.47793 37108 ft 459 kts 167°
2026-05-04 15:00 46.32355 22.50720 37107 ft 460 kts 167°
2026-05-04 15:00 46.26102 22.52672 37100 ft 460 kts 167°
2026-05-04 15:01 46.16716 22.55599 37102 ft 460 kts 167°
2026-05-04 15:01 46.10499 22.57519 37099 ft 460 kts 167°
2026-05-04 15:02 46.04240 22.59450 37100 ft 460 kts 167°
2026-05-04 15:02 45.97969 22.61389 37096 ft 460 kts 167°
2026-05-04 15:03 45.91707 22.63311 37099 ft 460 kts 167°
2026-05-04 15:03 45.85446 22.65235 37099 ft 460 kts 167°
2026-05-04 15:04 45.79214 22.67156 37100 ft 460 kts 167°
2026-05-04 15:04 45.72955 22.69068 37101 ft 460 kts 167°
2026-05-04 15:05 45.66684 22.70969 37100 ft 460 kts 167°
2026-05-04 15:05 45.60427 22.72870 37101 ft 460 kts 167°
2026-05-04 15:06 45.54174 22.74765 37101 ft 460 kts 167°
2026-05-04 15:07 45.44782 22.77603 37093 ft 459 kts 167°
2026-05-04 15:07 45.38530 22.79496 37090 ft 459 kts 167°
2026-05-04 15:08 45.32272 22.81390 37085 ft 459 kts 167°
2026-05-04 15:08 45.26013 22.83269 37082 ft 460 kts 167°
2026-05-04 15:09 45.19748 22.85139 37076 ft 460 kts 167°
2026-05-04 15:09 45.13479 22.87006 37075 ft 460 kts 167°
2026-05-04 15:10 45.04077 22.89810 37065 ft 460 kts 167°
2026-05-04 15:11 44.94710 22.92604 37054 ft 461 kts 167°
2026-05-04 15:11 44.88434 22.94457 37049 ft 461 kts 167°
2026-05-04 15:12 44.82159 22.96299 37047 ft 461 kts 167°
2026-05-04 15:12 44.75890 22.98157 37048 ft 460 kts 167°
2026-05-04 15:13 44.69613 23.00017 37050 ft 460 kts 167°
2026-05-04 15:13 44.63339 23.01856 37048 ft 460 kts 167°
2026-05-04 15:14 44.57118 23.03673 37051 ft 459 kts 167°
2026-05-04 15:14 44.50860 23.05508 37053 ft 459 kts 167°
2026-05-04 15:15 44.44600 23.07339 37057 ft 459 kts 167°
2026-05-04 15:15 44.38351 23.09158 37061 ft 459 kts 167°
2026-05-04 15:16 44.28980 23.11865 37063 ft 458 kts 167°
2026-05-04 15:17 44.19622 23.14573 37071 ft 457 kts 167°
2026-05-04 15:17 44.10277 23.17278 37073 ft 457 kts 167°
2026-05-04 15:18 44.04054 23.19059 37074 ft 456 kts 167°
2026-05-04 15:19 43.94730 23.21743 37075 ft 456 kts 167°
2026-05-04 15:19 43.85457 23.24387 37080 ft 456 kts 167°
2026-05-04 15:20 43.79278 23.26359 37080 ft 455 kts 164°
2026-05-04 15:20 43.73207 23.28829 37083 ft 455 kts 162°
2026-05-04 15:21 43.67156 23.31385 37086 ft 455 kts 162°
2026-05-04 15:22 43.58027 23.35022 37090 ft 455 kts 163°
2026-05-04 15:22 43.48891 23.38554 37087 ft 455 kts 163°
2026-05-04 15:23 43.42843 23.40906 37091 ft 455 kts 163°
2026-05-04 15:23 43.36715 23.43303 37094 ft 455 kts 163°
2026-05-04 15:24 43.24594 23.48029 37105 ft 455 kts 163°
2026-05-04 15:25 43.18461 23.50409 37109 ft 455 kts 163°
2026-05-04 15:26 43.09306 23.53958 37112 ft 455 kts 163°
2026-05-04 15:26 43.00149 23.57480 37114 ft 456 kts 163°
2026-05-04 15:27 42.90973 23.61007 37108 ft 457 kts 163°
2026-05-04 15:28 42.81825 23.64507 37116 ft 457 kts 163°
2026-05-04 15:29 42.72631 23.68024 37116 ft 458 kts 163°
2026-05-04 15:30 42.53635 23.75248 37117 ft 459 kts 163°
2026-05-04 15:31 42.44454 23.78741 37112 ft 459 kts 163°
2026-05-04 15:32 42.29063 23.84514 37115 ft 459 kts 163°
2026-05-04 15:34 42.13647 23.90303 37108 ft 460 kts 163°
2026-05-04 15:34 42.04379 23.93765 37098 ft 461 kts 164°
2026-05-04 15:35 41.95125 23.97204 37101 ft 462 kts 163°
2026-05-04 15:36 41.85988 24.00596 37091 ft 463 kts 163°
2026-05-04 15:36 41.79769 24.02902 37094 ft 464 kts 163°
2026-05-04 15:37 41.73546 24.05207 37083 ft 464 kts 163°
2026-05-04 15:37 41.67313 24.07509 37092 ft 465 kts 163°
2026-05-04 15:38 41.61072 24.09805 37090 ft 465 kts 163°
2026-05-04 15:38 41.55917 24.11849 37092 ft 464 kts 157°
2026-05-04 15:39 41.50313 24.16023 37089 ft 461 kts 144°
2026-05-04 15:40 41.42319 24.23198 37081 ft 461 kts 144°
2026-05-04 15:40 41.36976 24.27942 37080 ft 461 kts 145°
2026-05-04 15:41 41.31643 24.32666 37080 ft 460 kts 145°
2026-05-04 15:41 41.26326 24.37382 37079 ft 459 kts 145°
2026-05-04 15:42 41.21040 24.42070 37077 ft 459 kts 145°
2026-05-04 15:42 41.15401 24.46063 37075 ft 460 kts 153°
2026-05-04 15:43 41.09630 24.49752 37075 ft 460 kts 153°
2026-05-04 15:43 41.03862 24.53435 37075 ft 460 kts 153°
2026-05-04 15:44 40.98084 24.57111 37068 ft 460 kts 153°
2026-05-04 15:44 40.92289 24.60742 37068 ft 461 kts 154°
2026-05-04 15:45 40.86516 24.64335 37068 ft 461 kts 154°
2026-05-04 15:45 40.80699 24.67947 37068 ft 462 kts 154°
2026-05-04 15:46 40.74882 24.71556 37068 ft 462 kts 154°
2026-05-04 15:46 40.69051 24.75172 37066 ft 463 kts 154°
2026-05-04 15:47 40.63229 24.78783 37065 ft 463 kts 154°
2026-05-04 15:47 40.57418 24.82387 37070 ft 463 kts 154°
2026-05-04 15:48 40.51575 24.85992 37069 ft 464 kts 154°
2026-05-04 15:48 40.42796 24.91387 37068 ft 465 kts 154°
2026-05-04 15:49 40.36944 24.94983 37057 ft 464 kts 154°
2026-05-04 15:49 40.31095 24.98572 37056 ft 464 kts 154°
2026-05-04 15:50 40.25231 25.02165 37065 ft 465 kts 154°
2026-05-04 15:50 40.19395 25.05734 37074 ft 466 kts 154°
2026-05-04 15:51 40.13521 25.09317 37082 ft 466 kts 154°
2026-05-04 15:51 40.07638 25.12890 37091 ft 466 kts 154°
2026-05-04 15:52 40.01758 25.16448 37093 ft 466 kts 154°
2026-05-04 15:52 39.95878 25.20008 37093 ft 466 kts 154°
2026-05-04 15:53 39.90025 25.23551 37094 ft 466 kts 154°
2026-05-04 15:53 39.84133 25.27112 37095 ft 466 kts 154°
2026-05-04 15:54 39.78249 25.30669 37096 ft 467 kts 154°
2026-05-04 15:54 39.72341 25.34216 37092 ft 467 kts 154°
2026-05-04 15:55 39.66431 25.37742 37088 ft 467 kts 154°
2026-05-04 15:55 39.60527 25.41280 37087 ft 467 kts 154°
2026-05-04 15:56 39.54662 25.44801 37087 ft 467 kts 154°
2026-05-04 15:56 39.48756 25.48335 37088 ft 468 kts 155°
2026-05-04 15:57 39.42846 25.51850 37086 ft 468 kts 155°
2026-05-04 15:57 39.36916 25.55384 37088 ft 469 kts 155°
2026-05-04 15:58 39.30992 25.58908 37082 ft 469 kts 155°
2026-05-04 15:58 39.25050 25.62427 36977 ft 471 kts 155°
2026-05-04 15:59 39.22068 25.64186 36712 ft 469 kts 155°
2026-05-04 15:59 39.19101 25.65933 36450 ft 468 kts 155°
2026-05-04 15:59 39.16177 25.67654 36237 ft 467 kts 155°
2026-05-04 15:59 39.13196 25.69412 36393 ft 466 kts 155°
2026-05-04 16:00 39.07289 25.72897 36408 ft 468 kts 155°
2026-05-04 16:00 39.04371 25.74621 36279 ft 468 kts 155°
2026-05-04 16:00 39.01377 25.76387 35234 ft 476 kts 154°
2026-05-04 16:01 38.98355 25.78164 34439 ft 477 kts 154°
2026-05-04 16:01 38.95341 25.79929 33737 ft 475 kts 153°
2026-05-04 16:01 38.92349 25.81674 33198 ft 468 kts 153°
2026-05-04 16:01 38.89400 25.83392 32645 ft 463 kts 153°
2026-05-04 16:02 38.86476 25.85096 32102 ft 459 kts 153°
2026-05-04 16:02 38.83583 25.86786 31520 ft 456 kts 152°
2026-05-04 16:02 38.77829 25.90149 30330 ft 452 kts 152°
2026-05-04 16:03 38.74974 25.91814 29685 ft 449 kts 152°
2026-05-04 16:03 38.72141 25.93468 29024 ft 447 kts 152°
2026-05-04 16:03 38.69312 25.95119 28366 ft 445 kts 152°
2026-05-04 16:03 38.66496 25.96760 27723 ft 443 kts 152°
2026-05-04 16:04 38.63729 25.98371 27106 ft 441 kts 153°
2026-05-04 16:04 38.58161 26.01610 25917 ft 438 kts 153°
2026-05-04 16:04 38.55387 26.03213 25375 ft 436 kts 153°
2026-05-04 16:05 38.52632 26.04799 24847 ft 434 kts 154°
2026-05-04 16:05 38.49890 26.06377 24336 ft 432 kts 154°
2026-05-04 16:05 38.44422 26.09538 23251 ft 430 kts 154°
2026-05-04 16:06 38.41707 26.11109 22655 ft 429 kts 154°
2026-05-04 16:06 38.34491 26.15270 21120 ft 427 kts 154°
2026-05-04 16:07 38.30869 26.17351 20411 ft 425 kts 154°
2026-05-04 16:07 38.22929 26.21909 19210 ft 410 kts 154°
2026-05-04 16:08 38.20342 26.23388 18853 ft 404 kts 153°
2026-05-04 16:08 38.12812 26.27695 17712 ft 387 kts 152°
2026-05-04 16:09 38.08132 26.30861 16914 ft 376 kts 148°
2026-05-04 16:09 38.03614 26.34115 16145 ft 370 kts 148°
2026-05-04 16:10 37.99170 26.37321 15396 ft 365 kts 148°
2026-05-04 16:11 37.92617 26.42003 14299 ft 358 kts 148°
2026-05-04 16:11 37.90451 26.43544 13950 ft 356 kts 149°
2026-05-04 16:12 37.84008 26.48105 12758 ft 350 kts 149°
2026-05-04 16:12 37.77662 26.52590 11598 ft 346 kts 149°
2026-05-04 16:13 37.73520 26.55521 10862 ft 342 kts 149°
2026-05-04 16:13 37.69390 26.58444 10129 ft 338 kts 149°
2026-05-04 16:14 37.65313 26.61323 9345 ft 333 kts 149°
2026-05-04 16:14 37.61285 26.64158 8558 ft 329 kts 149°
2026-05-04 16:15 37.55336 26.68326 7413 ft 323 kts 149°
2026-05-04 16:16 37.51511 26.71106 6997 ft 305 kts 140°
2026-05-04 16:16 37.49233 26.77428 6341 ft 261 kts 71°
2026-05-04 16:17 37.50317 26.81740 5601 ft 258 kts 65°
2026-05-04 16:18 37.52100 26.87674 4547 ft 219 kts 44°
2026-05-04 16:18 37.53240 26.88798 4259 ft 201 kts 26°
2026-05-04 16:19 37.56823 26.90439 3501 ft 172 kts
2026-05-04 16:19 37.59141 26.90538 3033 ft 163 kts 359°
2026-05-04 16:20 37.62201 26.90630 2424 ft 136 kts 358°
2026-05-04 16:20 37.64046 26.90394 1988 ft 135 kts 338°
2026-05-04 16:21 37.66439 26.88572 1198 ft 134 kts 325°
2026-05-04 16:22 37.68025 26.87297 897 ft 139 kts 351°
2026-05-04 16:22 37.68941 26.90137 155 ft 150 kts 89°
2026-05-04 16:23 37.69092 26.94631 1807 ft 200 kts 78°
2026-05-04 16:24 37.65526 26.99554 2014 ft 233 kts 200°
2026-05-04 16:25 37.63524 26.96918 2017 ft 206 kts 267°
2026-05-04 16:26 37.63765 26.90298 1602 ft 166 kts 307°
2026-05-04 16:26 37.65893 26.87881 1240 ft 128 kts 346°
2026-05-04 16:27 37.67161 26.86959 896 ft 130 kts 328°
2026-05-04 16:28 37.69089 26.89005 333 ft 162 kts 96°
2026-05-04 16:28 37.68894 26.91664 29 ft 3 kts 70°
2026-05-04 16:29 37.69045 26.91483 29 ft 0 kts 14°